Location: Burla
(50.9568°N, 10.4983°E)
Time: 22:03:01
(UTC+00:00)

Cosmos 1656 Rocket - Pass Details

Date: 18 January 2026
Orbit: 794 x 843 km, 71.1° (Epoch: 18 February)

Event Time Altitude Azimuth Distance (km) Brightness Sun altitude
Rises 05:58:57 0° 209° (SSW) 3,390 6.7 -11.2°
Reaches altitude 10° 06:01:23 10° 210° (SSW) 2,458 6.0 -10.8°
Maximum altitude 06:07:03 86° 300° (WNW) 850 3.7 -10.0°
Drops below altitude 10° 06:12:43 10° 29° (NNE) 2,458 6.2 -9.1°
Sets 06:15:10 0° 30° (NNE) 3,390 7.0 -8.8°
